ZKKAL NZHN-NZNV

Flight info

Callsign ZKKAL
Flight time N/A
Altitude 40000
Route DADUK H479 NP H252 NS Q787 ANOPA
Aircraft C25C/M-SDE2E3FGHRWXY/LB1

Departure

Time 2026-04-11 09:58
Airport Hamilton International Airport (NZHN)

Arrival

Time N/A
Airport Invercargill Airport (NZNV)
Time Latitude Longitude Altitude Speed Heading
2026-04-11 09:56 -37.85590 175.33614 163 ft 0 kts 196°
2026-04-11 09:57 -37.85689 175.33578 163 ft 61 kts 196°
2026-04-11 09:57 -37.86424 175.33300 315 ft 142 kts 197°
2026-04-11 09:58 -37.87528 175.32786 840 ft 193 kts 199°
2026-04-11 09:58 -37.88830 175.32008 1972 ft 220 kts 197°
2026-04-11 09:58 -37.90811 175.30800 3327 ft 256 kts 198°
2026-04-11 09:58 -37.91925 175.30121 3968 ft 270 kts 198°
2026-04-11 09:59 -37.93672 175.29045 4929 ft 287 kts 200°
2026-04-11 09:59 -37.95494 175.27908 5874 ft 298 kts 200°
2026-04-11 09:59 -37.97352 175.26752 6777 ft 305 kts 200°
2026-04-11 09:59 -37.98175 175.26235 7196 ft 305 kts 201°
2026-04-11 10:00 -37.99374 175.25474 7768 ft 315 kts 201°
2026-04-11 10:00 -37.99383 175.25469 7768 ft 315 kts 201°
2026-04-11 10:00 -38.01438 175.24145 8768 ft 343 kts 202°
2026-04-11 10:01 -38.03654 175.22733 9722 ft 369 kts 203°
2026-04-11 10:01 -38.05990 175.21225 10658 ft 386 kts 203°
2026-04-11 10:01 -38.08394 175.19669 11638 ft 399 kts 204°
2026-04-11 10:01 -38.10871 175.18039 12884 ft 402 kts 204°
2026-04-11 10:02 -38.13349 175.16396 14225 ft 402 kts 205°
2026-04-11 10:02 -38.15820 175.14727 15539 ft 402 kts 205°
2026-04-11 10:02 -38.18282 175.13045 16825 ft 404 kts 205°
2026-04-11 10:02 -38.20767 175.11330 17878 ft 410 kts 205°
2026-04-11 10:03 -38.23285 175.09570 18844 ft 414 kts 206°
2026-04-11 10:03 -38.25810 175.07783 19779 ft 418 kts 207°
2026-04-11 10:03 -38.28333 175.05889 20691 ft 423 kts 210°
2026-04-11 10:03 -38.30833 175.03998 21618 ft 425 kts 208°
2026-04-11 10:04 -38.33405 175.02109 22586 ft 427 kts 208°
2026-04-11 10:04 -38.35986 175.00235 23556 ft 428 kts 209°
2026-04-11 10:04 -38.38569 174.98332 24348 ft 430 kts 210°
2026-04-11 10:04 -38.41174 174.96393 24845 ft 440 kts 210°
2026-04-11 10:05 -38.43875 174.94394 24979 ft 457 kts 210°
2026-04-11 10:05 -38.46669 174.92331 25122 ft 471 kts 210°
2026-04-11 10:05 -38.49498 174.90241 25281 ft 480 kts 211°
2026-04-11 10:05 -38.52383 174.88096 25788 ft 479 kts 211°
2026-04-11 10:06 -38.55260 174.85960 26323 ft 479 kts 211°
2026-04-11 10:06 -38.58139 174.83825 26859 ft 478 kts 211°
2026-04-11 10:06 -38.61013 174.81688 27403 ft 478 kts 211°
2026-04-11 10:06 -38.63889 174.79546 27962 ft 478 kts 211°
2026-04-11 10:07 -38.66756 174.77409 28523 ft 477 kts 212°
2026-04-11 10:07 -38.69627 174.75273 28993 ft 479 kts 212°
2026-04-11 10:07 -38.72511 174.73115 29393 ft 482 kts 212°
2026-04-11 10:07 -38.75377 174.70980 29797 ft 484 kts 212°
2026-04-11 10:08 -38.78283 174.68801 30157 ft 486 kts 212°
2026-04-11 10:08 -38.81215 174.66609 30471 ft 488 kts 212°
2026-04-11 10:08 -38.84152 174.64404 30775 ft 490 kts 211°
2026-04-11 10:08 -38.87099 174.62197 31082 ft 491 kts 211°
2026-04-11 10:09 -38.90057 174.59983 31393 ft 492 kts 212°
2026-04-11 10:09 -38.93012 174.57760 31713 ft 493 kts 212°
2026-04-11 10:09 -38.95989 174.55518 31842 ft 498 kts 212°
2026-04-11 10:10 -39.02001 174.50991 31899 ft 510 kts 212°
2026-04-11 10:10 -39.08177 174.46333 31906 ft 518 kts 212°
2026-04-11 10:11 -39.14428 174.41603 31913 ft 523 kts 212°
2026-04-11 10:11 -39.20733 174.36826 31921 ft 527 kts 212°
2026-04-11 10:12 -39.27017 174.32050 31924 ft 529 kts 212°
2026-04-11 10:12 -39.33363 174.27223 31924 ft 530 kts 212°
2026-04-11 10:13 -39.39708 174.22382 31932 ft 530 kts 212°
2026-04-11 10:13 -39.46057 174.17531 31932 ft 530 kts 212°
2026-04-11 10:14 -39.52355 174.12706 31934 ft 529 kts 212°
2026-04-11 10:14 -39.58685 174.07849 31935 ft 529 kts 212°
2026-04-11 10:15 -39.65018 174.02976 31933 ft 529 kts 212°